Location: Seattle
(47.6064°N, 122.3308°W)
Time: 01:45:48
(UTC-08:00)

A-11 Canister half - Pass Details

Date: 30 November 2020
Orbit: 1524 x 1684 km, 47.3° (Epoch: 27 January)

Event Time Altitude Azimuth Distance (km) Brightness Sun altitude
Rises 06:19:08 0° 239° (WSW) 4,932 11.3 -12.5°
Reaches altitude 10° 06:22:19 10° 237° (WSW) 3,943 10.8 -12.0°
Maximum altitude 06:32:22 70° 157° (SSE) 1,754 9.5 -10.4°
Drops below altitude 10° 06:42:14 10° 76° (ENE) 3,873 12.0 -8.9°
Sets 06:45:20 0° 75° (ENE) 4,840 12.5 -8.4°
